Location: Blankensee
(53.5126°N, 14.3055°E)
Time: 18:16:06
(UTC+00:00)

ARIANE 5 R/B - Pass Details

Date: 08 August 2020
Orbit: 749 x 794 km, 98.6° (Epoch: 19 September)

Event Time Altitude Azimuth Distance (km) Brightness Sun altitude
Rises 01:29:39 0° 19° (NNE) 3,297 7.4 -14.1°
Reaches altitude 10° 01:32:06 10° 26° (NNE) 2,368 6.4 -13.9°
Maximum altitude 01:37:05 44° 98° (E) 1,098 3.5 -13.5°
Drops below altitude 10° 01:42:04 10° 170° (S) 2,361 4.6 -13.0°
Enters shadow 01:42:42 - 172° (S) 2,596 4.8 -13.0°
